Weather History for Laramie, WY

Change the Weather History Date:

Tuesday, January 8, 2013

  Actual Average Record
Temperature  
Mean Temperature 27 °F 22 °F  
Max Temperature 32 °F 33 °F 55 °F (1966)
Min Temperature 22 °F 10 °F -28 °F (1962)
Degree Days  
Heating Degree Days 38 43  
Month to date heating degree days 436 345  
Since 1 July heating degree days 3581 4018  
Cooling Degree Days 0 0  
Month to date cooling degree days 0 0  
Year to date cooling degree days 0 0  
Moisture  
Dew Point 18 °F    
Average Humidity 66    
Maximum Humidity 74    
Minimum Humidity 58    
Precipitation  
Precipitation 0.00 in 0.01 in 0.34 in (1962)
Month to date precipitation T 0.07  
Year to date precipitation T 0.07  
Sea Level Pressure  
Sea Level Pressure 30.02 in    
Wind  
Wind Speed 18 mph (WSW)    
Max Wind Speed 35 mph    
Max Gust Speed 40 mph    
Visibility 10 miles    
Events      
T = Trace of Precipitation, MM = Missing Value Source: NWS Daily Summary

Daily Weather History Graph

Daily Weather History Graph

Search for Another Location

Airport:

Trip Planner

Search our weather history database for the weather conditions in past years. The results will help you decide how hot, cold, wet, or windy it might be!

Date:

Astronomy

Jan. 08, 2013 Rise Set
Actual Time 7:28 AM MST 4:51 PM MST
Civil Twilight 6:57 AM MST 5:21 PM MST
Nautical Twilight 6:23 AM MST 5:56 PM MST
Astronomical Twilight 5:49 AM MST 6:29 PM MST
Moon 4:04 AM MST (1/8) 1:55 PM MST (1/8)
Length of Visible Light 10h 24m
Length of Day
9h 22m
Waning Crescent, 13% of the Moon is Illuminated
Jan 8
Waning Crescent
Jan 11
New
Jan 18
First Quarter
Jan 26
Full
Feb 3
Last Quarter

Hourly Weather History & Observations

Time (MST) Temp. Windchill Dew Point Humidity Pressure Visibility Wind Dir Wind Speed Gust Speed Precip Events Conditions
12:00 AM 30.2 °F 15.9 °F 19.4 °F 64% 29.84 in 10.0 mi West 26.5 mph 35.7 mph N/A   Mostly Cloudy
12:53 AM 28.0 °F 13.9 °F 18.0 °F 66% 29.82 in 10.0 mi West 23.0 mph 32.2 mph N/A   Clear
1:53 AM 25.0 °F 8.4 °F 12.9 °F 60% 29.83 in 10.0 mi SW 28.8 mph - N/A   Clear
2:53 AM 25.0 °F 8.6 °F 16.0 °F 69% 29.82 in 10.0 mi West 27.6 mph - N/A   Clear
3:53 AM 25.0 °F 8.4 °F 18.0 °F 75% 29.84 in 8.0 mi WSW 28.8 mph 36.8 mph N/A   Clear
5:53 AM 28.9 °F 17.7 °F 16.0 °F 58% 29.88 in 10.0 mi West 15.0 mph 23.0 mph N/A   Partly Cloudy
6:53 AM 28.9 °F 14.0 °F 17.1 °F 61% 29.90 in 10.0 mi West 27.6 mph 40.3 mph N/A   Clear
7:53 AM 26.1 °F - 18.0 °F 71% 29.94 in 10.0 mi Calm Calm - N/A   Mostly Cloudy
8:53 AM 28.0 °F 20.8 °F 17.1 °F 63% 29.96 in 10.0 mi Variable 6.9 mph - N/A   Mostly Cloudy
10:53 AM 30.0 °F 26.5 °F 19.0 °F 64% 29.97 in - Variable 3.5 mph - N/A   Clear
11:53 AM 30.0 °F 20.0 °F 21.0 °F 69% 29.96 in 10.0 mi WSW 12.7 mph - N/A   Clear
12:53 PM 30.9 °F 17.2 °F 21.0 °F 67% 29.97 in 10.0 mi SW 25.3 mph 33.4 mph N/A   Partly Cloudy
1:53 PM 32.0 °F 19.8 °F 21.0 °F 64% 30.00 in 10.0 mi West 20.7 mph - N/A   Clear
2:53 PM 30.9 °F 21.2 °F 19.9 °F 64% 30.07 in 10.0 mi SW 12.7 mph 24.2 mph N/A   Clear
3:53 PM 28.9 °F 16.9 °F 18.0 °F 64% 30.11 in 10.0 mi SW 17.3 mph - N/A   Partly Cloudy
4:53 PM 27.0 °F 13.9 °F 17.1 °F 66% 30.13 in - SW 18.4 mph - N/A   Clear
5:53 PM 24.1 °F 9.8 °F 16.0 °F 71% 30.15 in 10.0 mi SW 19.6 mph - N/A   Clear
6:53 PM 23.0 °F 8.7 °F 15.1 °F 72% 30.16 in 10.0 mi SW 18.4 mph - N/A   Clear
7:53 PM 24.1 °F 11.5 °F 16.0 °F 71% 30.18 in 10.0 mi SW 15.0 mph - N/A   Clear
8:53 PM 24.1 °F 9.8 °F 16.0 °F 71% 30.23 in 10.0 mi SW 19.6 mph 28.8 mph N/A   Clear
9:53 PM 24.1 °F 11.0 °F 16.0 °F 71% 30.27 in 10.0 mi WSW 16.1 mph - N/A   Clear
10:53 PM 27.0 °F 11.3 °F 18.0 °F 69% 30.26 in 10.0 mi WSW 27.6 mph 35.7 mph N/A   Clear
11:53 PM 25.0 °F 8.4 °F 18.0 °F 75% 30.28 in 9.0 mi WSW 28.8 mph 35.7 mph N/A   Clear